Flag for Kazakhstan Weather past 2 weeks in Aqtobe, Kazakhstan

Now
73 °F

Sunny.


Feels Like: 76 °F
Forecast: 65 / 82 °F
Wind: 10 mph from Northwest

Location: Aktjubinsk

Current Time: Jul 2, 2015 at 8:50:34 AM

Latest Report: Jul 2, 2015 at 8:00 AM


Visibility: 10 mi

Pressure: 29.83 "Hg

Humidity: 61%

Dew point: 59 °F

Location of AqtobeLocation

Historic Weather in Aqtobe — Graph

°F

Aqtobe temperature yesterday

Maximum temperature yesterday: 99 °F (at 4:00 PM)
Minimum temperature yesterday: 66 °F (at 5:30 AM)
Average temperature yesterday: 83 °F

Past Weeks' High & Low Weather Summary

 TemperatureHumidityPressure
High100 °F (Jun 28, 3:30 PM)94% (Jul 2, 4:00 AM)30.04 "Hg (Jul 2, 4:00 AM)
Low63 °F (Jun 24, 5:30 AM)12% (Jun 17, 1:30 PM)29.62 "Hg (Jun 26, 5:30 PM)
Average84 °F33%29.84 "Hg
* Reported Jun 17 7:00 AM — Jul 2 7:30 AM, Aqtobe, Weather by CustomWeather, © 2015

Note: Actual official high and low records may vary slightly from our data, if they occured in-between our weather recording intervals... More about our weather records

Advertising

Aqtobe weather history for previous 24 hours

 ConditionsComfort  
Time TempWeatherWind HumidityBarometerVisibility
7:30 AM
Thu, Jul 2
72 °FSunny.8 mph69%29.83 "Hg10 mi
7:00 AM68 °FSunny.6 mph78%29.83 "Hg10 mi
6:30 AM66 °FSunny.6 mph83%29.83 "Hg10 mi
6:00 AM64 °FSunny.3 mph88%29.83 "Hg10 mi
5:30 AM63 °FSunny.3 mph88%29.83 "Hg10 mi
5:00 AM63 °FClear.No wind88%29.83 "Hg10 mi
4:30 AM63 °FClear.3 mph94%29.83 "Hg10 mi
4:00 AM63 °FClear.6 mph94%29.80 "Hg10 mi
3:30 AM64 °FClear.8 mph88%29.80 "Hg10 mi
3:00 AM64 °FClear.6 mph88%29.80 "Hg10 mi
2:30 AM66 °FClear.8 mph83%29.80 "Hg10 mi
2:00 AM66 °FClear.8 mph83%29.80 "Hg10 mi
1:30 AM68 °FClear.8 mph78%29.80 "Hg10 mi
1:00 AM70 °FClear.13 mph73%29.80 "Hg10 mi
12:30 AM70 °FClear.10 mph73%29.80 "Hg10 mi
12:00 AM72 °FPartly cloudy.10 mph69%29.80 "HgN/A
11:30 PM
Wed, Jul 1
73 °FPartly cloudy.13 mph69%29.80 "HgN/A
11:00 PM73 °FPartly cloudy.13 mph74%29.80 "HgN/A
10:30 PM73 °FPartly cloudy.13 mph74%29.77 "HgN/A
10:00 PM77 °FThundershowers. Partly cloudy.15 mph57%29.80 "HgN/A
9:30 PM79 °FSprinkles. Partly cloudy.13 mph48%29.77 "HgN/A
9:00 PM79 °FBroken clouds.10 mph48%29.74 "HgN/A
8:30 PM81 °FThundershowers. More clouds than sun.17 mph45%29.74 "HgN/A
8:00 PM84 °FSprinkles. More clouds than sun.17 mph37%29.71 "HgN/A
7:30 PM86 °FThundershowers. More clouds than sun.17 mph31%29.71 "HgN/A
7:00 PM88 °FThundershowers. More clouds than sun.17 mph27%29.71 "HgN/A
6:30 PM90 °FThundershowers. More clouds than sun.22 mph27%29.71 "HgN/A
6:00 PM93 °FMore clouds than sun.17 mph23%29.71 "HgN/A
5:30 PM97 °FMore clouds than sun.13 mph17%29.71 "HgN/A
5:00 PM99 °FMore clouds than sun.6 mph16%29.71 "HgN/A
4:30 PM99 °FPartly sunny.13 mph16%29.74 "HgN/A
4:00 PM99 °FPartly sunny.15 mph16%29.74 "HgN/A
3:30 PM97 °FSunny.10 mph18%29.77 "Hg10 mi
3:00 PM97 °FPartly sunny.8 mph18%29.77 "HgN/A
2:30 PM97 °FPartly sunny.6 mph18%29.80 "HgN/A
2:00 PM95 °FPartly sunny.8 mph19%29.80 "HgN/A
1:30 PM93 °FBroken clouds.6 mph21%29.80 "Hg6 mi
1:00 PM95 °FPartly sunny.8 mph19%29.83 "Hg6 mi
12:30 PM95 °FClear.8 mph20%29.83 "Hg6 mi
12:00 PM93 °FClear.6 mph21%29.86 "Hg6 mi
11:30 AM91 °FClear.3 mph24%29.86 "Hg6 mi
11:00 AM90 °FClear.6 mph24%29.86 "Hg5 mi
10:30 AM90 °FPassing clouds.3 mph26%29.86 "HgN/A
10:00 AM90 °FPassing clouds.6 mph24%29.86 "HgN/A
9:30 AM88 °FSunny.1 mph25%29.86 "Hg10 mi
8:30 AM84 °FPassing clouds.3 mph29%29.89 "HgN/A
8:00 AM82 °FSunny.1 mph30%29.86 "Hg10 mi
Weather by CustomWeather, © 2015

See weather overviewHow to use our weather pages